COSMOS 2507

导读 | 星芒AI

COSMOS 2507 是俄罗斯于2019年发射的一颗军用卫星,主要用于电子侦察和信号情报收集。该卫星由联盟-2.1b运载火箭从普列谢茨克航天发射场发射升空。COSMOS 2507 的轨道高度约为400公里,运行在近地轨道上,具备监视和拦截通信信号的能力,可能用于监测军事和民用通信系统。该卫星的发射进一步增强了俄罗斯在太空情报领域的实力,也引发了国际社会对其太空军事化趋势的关注。

基本信息
目录编号:
40920
目录名称:
COSMOS 2507
国际标识:
2015-050A
轨道中心:
EARTH
卫星名称:
COSMOS 2507
卫星全名:
--
卫星状态:
在轨 (已飞行3691 天)
发射日期:
2015-09-23 UTC
国别 :
俄罗斯(独联体) (CIS)
星等 :
--
轨道信息
数据来源 国际轨道数据 AOE轨道数据
星历时间 2025-11-01T00:58:59+0800
3小时前
查看轨道信息
2025-10-30T19:00:00+0800
1天前
查看轨道信息
半长轴 7872.399km 7872.404km
偏心率 0.0009949 0.0009683
轨道倾角 82.494° 82.493°
近地点辐角 121.468° 123.503°
升交点赤经 221.881° 222.659°
平近点角 238.737° 49.474°
近地点 1486.431km 1486.646km
远地点 1502.097km 1501.892km
周期 115.856分钟 115.857分钟
每日圈数 12.429172 12.42916
详细信息
使用方式:
暂无
2D轨道图
3D轨道图
轨道高度分析图
轨道倾角分析图
轨道综合分析图
查看轨道综合分析图